Weather History for Torrington, WY

Change the Weather History Date:

Thursday, November 15, 2012

  Actual Average Record
Temperature  
Mean Temperature 40 °F 36 °F  
Max Temperature 51 °F 50 °F 74 °F (1999)
Min Temperature 29 °F 22 °F -1 °F (2014)
Degree Days  
Heating Degree Days 25 29  
Month to date heating degree days 372 386  
Since 1 July heating degree days 998 1096  
Cooling Degree Days 0 0  
Month to date cooling degree days 0 0  
Year to date cooling degree days 1021 678  
Moisture  
Dew Point 26 °F    
Average Humidity 59    
Maximum Humidity 82    
Minimum Humidity 36    
Precipitation  
Precipitation 0.00 in 0.01 in 0.04 in (2009)
Month to date precipitation 0.05 0.27  
Year to date precipitation 6.96 13.67  
Sea Level Pressure  
Sea Level Pressure 30.33 in    
Wind  
Wind Speed 8 mph (South)    
Max Wind Speed 15 mph    
Max Gust Speed 20 mph    
Visibility 10 miles    
Events      
T = Trace of Precipitation, MM = Missing Value Source: NWS Daily Summary

Daily Weather History Graph

Daily Weather History Graph

Search for Another Location

Airport:

Trip Planner

Search our weather history database for the weather conditions in past years. The results will help you decide how hot, cold, wet, or windy it might be!

Date:

Astronomy

Nov. 15, 2012 Rise Set
Actual Time 6:47 AM MST 4:34 PM MST
Civil Twilight 6:17 AM MST 5:04 PM MST
Nautical Twilight 5:43 AM MST 5:38 PM MST
Astronomical Twilight 5:10 AM MST 6:11 PM MST
Moon 8:46 AM MST (11/15) 6:27 PM MST (11/15)
Length of Visible Light 10h 47m
Length of Day
9h 47m
Waxing Crescent, 5% of the Moon is Illuminated
Nov 15
Waxing Crescent
Nov 20
First Quarter
Nov 28
Full
Dec 6
Last Quarter
Dec 13
New

Hourly Weather History & Observations

Time (MST) Temp. Windchill Dew Point Humidity Pressure Visibility Wind Dir Wind Speed Gust Speed Precip Events Conditions
12:53 AM 37.9 °F 31.5 °F 26.1 °F 62% 30.20 in 10.0 mi North 9.2 mph - N/A   Overcast
1:53 AM 37.0 °F 31.0 °F 25.0 °F 62% 30.24 in 10.0 mi NNW 8.1 mph - N/A   Clear
2:53 AM 33.1 °F 28.7 °F 24.1 °F 70% 30.29 in 10.0 mi West 4.6 mph - N/A   Scattered Clouds
3:53 AM 34.0 °F 25.0 °F 23.0 °F 64% 30.30 in 10.0 mi NW 12.7 mph - N/A   Overcast
4:53 AM 34.0 °F 26.0 °F 24.1 °F 67% 30.32 in 10.0 mi NW 10.4 mph - N/A   Overcast
5:53 AM 34.0 °F 28.0 °F 25.0 °F 70% 30.34 in 10.0 mi NW 6.9 mph - N/A   Overcast
6:53 AM 28.9 °F 23.9 °F 23.0 °F 78% 30.38 in 10.0 mi West 4.6 mph - N/A   Overcast
7:53 AM 33.1 °F 30.0 °F 25.0 °F 72% 30.40 in 10.0 mi West 3.5 mph - N/A   Mostly Cloudy
8:53 AM 37.9 °F 32.7 °F 25.0 °F 60% 30.40 in 10.0 mi WNW 6.9 mph - N/A   Partly Cloudy
9:53 AM 43.0 °F 41.3 °F 27.0 °F 53% 30.40 in 10.0 mi Variable 3.5 mph - N/A   Clear
10:53 AM 46.0 °F 43.9 °F 26.1 °F 46% 30.38 in 10.0 mi WSW 4.6 mph - N/A   Clear
11:53 AM 48.0 °F - 26.1 °F 42% 30.35 in 10.0 mi SSE 4.6 mph - N/A   Clear
12:53 PM 50.0 °F - 25.0 °F 38% 30.32 in 10.0 mi SSE 11.5 mph - N/A   Clear
1:53 PM 50.0 °F - 24.1 °F 36% 30.30 in 10.0 mi South 8.1 mph - N/A   Clear
2:53 PM 50.0 °F - 24.1 °F 36% 30.30 in 10.0 mi SE 11.5 mph - N/A   Clear
3:53 PM 48.0 °F - 26.1 °F 42% 30.31 in 10.0 mi SE 8.1 mph - N/A   Clear
4:53 PM 43.0 °F 37.2 °F 26.1 °F 51% 30.32 in 10.0 mi SE 10.4 mph - N/A   Clear
5:53 PM 39.0 °F 33.4 °F 26.1 °F 60% 30.35 in 10.0 mi SSE 8.1 mph - N/A   Clear
6:53 PM 37.9 °F 32.7 °F 27.0 °F 65% 30.37 in 10.0 mi SSE 6.9 mph - N/A   Clear
7:53 PM 36.0 °F 30.3 °F 28.0 °F 73% 30.35 in 10.0 mi SSE 6.9 mph - N/A   Clear
8:53 PM 35.1 °F 27.4 °F 28.0 °F 76% 30.33 in 10.0 mi SE 10.4 mph - N/A   Clear
9:53 PM 34.0 °F 29.8 °F 28.0 °F 79% 30.32 in 10.0 mi SSE 4.6 mph - N/A   Clear
10:53 PM 35.1 °F 27.9 °F 28.0 °F 76% 30.28 in 10.0 mi ESE 9.2 mph - N/A   Clear
11:53 PM 35.1 °F 27.4 °F 28.0 °F 76% 30.27 in 10.0 mi SE 10.4 mph - N/A   Clear